Location: *
(46.3500°N, 10.9000°E)
Time: 22:31:05
(UTC+00:00)

Explorer 7 - Pass Details

Date: 27 April 2021
Orbit: 484 x 677 km, 50.3° (Epoch: 05 May)

Event Time Altitude Azimuth Distance (km) Brightness Sun altitude
Rises 22:46:29 0° 289° (WNW) 2,758 10.7 -29.2°
Enters shadow 22:48:33 - 280° (W) 2,018 9.9 -29.2°
Reaches altitude 10° 22:48:56 10° 277° (W) 1,894 - -29.2°
Maximum altitude 22:52:35 27° 220° (SW) 1,166 - -29.3°
Drops below altitude 10° 22:56:25 10° 163° (SSE) 1,988 - -29.4°
Sets 22:59:03 0° 151° (SSE) 2,924 - -29.4°
